Regional Weather Roundup
Issued by NWS

Home | Current Version | Previous Version | Graphics & Text | Print | Product List | Glossary On
Versions: 1 2 3 4 5 6 7 8 9 10 11 12 13 14 15 16 17 18 19 20 21 22 23 24 25 26 27 28 29 30 31 32 33 34 35 36 37 38 39 40 41 42 43 44 45 46 47 48 49 50
853
ASUS43 KLMK 050610
RWRKY
KENTUCKY REGIONAL WEATHER ROUNDUP
NATIONAL WEATHER SERVICE LOUISVILLE KY
200 AM EDT THU MAY 05 2016

NOTE "FAIR" INDICATES FEW OR NO CLOUDS BELOW 12,000 FEET
WITH NO SIGNIFICANT WEATHER AND/OR OBSTRUCTIONS TO VISIBILITY.

KYZ001>023-026-027-061>063-070>075-050700-
WESTERN AND SOUTH CENTRAL KENTUCKY

CITY           SKY/WX    TMP DP  RH WIND       PRES   REMARKS
PADUCAH        PTCLDY    45  41  86 SW5       29.87S
HENDERSON      MOCLDY    52  41  66 CALM      29.83F
OWENSBORO      CLOUDY    50  46  85 W6        29.83F
HOPKINSVILLE   CLEAR     49  42  74 W3        29.85F
BOWLING GREEN  MOCLDY    51  41  68 NW3       29.84F
GLASGOW        CLEAR     46  41  82 NW3       29.83S
$$

KYZ024-025-028>034-038-045-046-053-050700-
NORTH CENTRAL KENTUCKY

CITY           SKY/WX    TMP DP  RH WIND       PRES   REMARKS
LOUISVILLE/SDF CLOUDY    50  38  63 NW7       29.79F
LOUISVILLE/LOU CLOUDY    48  38  68 NW8       29.80F
FORT KNOX      MOCLDY    43  40  87 W3        29.79F
$$

KYZ035>037-039>044-047>052-055>060-089>105-050700-
NORTHEAST KENTUCKY

CITY           SKY/WX    TMP DP  RH WIND       PRES   REMARKS
LEXINGTON      PTCLDY    43  36  76 CALM      29.77F
COVINGTON      LGT RAIN  45  36  70 W5        29.74F
FRANKFORT      MOCLDY    46  37  71 W3        29.77F
$$

KYZ054-064>069-076>088-106>120-050700-
SOUTHEAST KENTUCKY

CITY           SKY/WX    TMP DP  RH WIND       PRES   REMARKS
JACKSON        CLEAR     43  40  89 NW5       29.75F
LONDON         CLOUDY    45  44  97 W3        29.77F
SOMERSET       CLOUDY    46  46 100 CALM      29.80F
MIDDLESBORO    CLOUDY    46  46 100 CALM      29.77F
MONTICELLO     MOCLDY    49  46  90 NW8       29.81F
$$





USA.gov is the U.S. government's official web portal to all federal, state and local government web resources and services.